AirNav   ProFlight Series 2 Aviation Headset
 
 485 users online  

3F7 Jones Memorial Airport
Bristow, Oklahoma, USA

GOING TO BRISTOW?


FAA INFORMATION EFFECTIVE 13 AUGUST 2020

Location

FAA Identifier: 3F7
Lat/Long: 35-48-25.2600N 096-25-19.0200W
35-48.421000N 096-25.317000W
35.8070167,-96.4219500
(estimated)
Elevation: 851.9 ft. / 260 m
Variation: 05E (2000)
From city: 3 miles SW of BRISTOW, OK
Time zone: UTC -5 (UTC -6 during Standard Time)
Zip code: 74010

Airport Operations

Airport use: Open to the public
Activation date: 01/1966
Control tower: no
ARTCC: KANSAS CITY CENTER
FSS: MC ALESTER FLIGHT SERVICE STATION
NOTAMs facility: MLC (NOTAM-D service available)
Attendance: UNATNDD
Wind indicator: yes
Segmented circle: no
Lights: ACTVT MIRL RY 18/36 - CTAF.
Beacon: white-green (lighted land airport)
Operates sunset to sunrise.

Airport Communications

CTAF: 122.9
WX AWOS-3 at CUH (19 nm NW): 118.25 ((918) 225-6072)
  • APCH/DEP SVC PRVDD BY KANSAS CITY ARTCC ON FREQS 127.8/319.1(PONCA CITY RCAG).

Nearby radio navigation aids

VOR radial/distance  VOR name  Freq  Var
OKMr276/27.9OKMULGEE VOR/DME114.9008E
TULr225/38.6TULSA VORTAC114.4008E

 
NDB name  Hdg/Dist  Freq  Var  ID
WILLIAM POGUE205/25.536206EOWP --- .-- .--.
HENRYETTA317/31.326704EHET .... . -
SEMINOLE015/34.427806ESRE ... .-. .

Airport Services

Fuel available: 100LL
24 HR. AUTOMATED FUEL SERVICE SYSTEM.
Parking: tiedowns
Bottled oxygen: NONE
Bulk oxygen: NONE

Runway Information

Runway 18/36

Dimensions: 3379 x 50 ft. / 1030 x 15 m
Surface: asphalt, in fair condition
Weight bearing capacity: 
Single wheel: 4.0
Runway edge lights: medium intensity
RUNWAY 18  RUNWAY 36
Latitude: 35-48.699500N35-48.142500N
Longitude: 096-25.316000W096-25.318000W
Elevation: 805.3 ft.851.8 ft.
Traffic pattern: leftleft
Runway heading: 176 magnetic, 181 true356 magnetic, 001 true
Markings: nonprecision, in good conditionnonprecision, in good condition
Touchdown point: yes, no lightsyes, no lights
Obstructions: none57 ft. pline, marked, 1170 ft. from runway, 17:1 slope to clear

Airport Ownership and Management from official FAA records

Ownership: Publicly-owned
Owner: CITY OF BRISTOW
110 W 7TH ST
BRISTOW, OK 74010
Phone 918-367-6244
Manager: ANDREW DONOHUE
24503 S 385TH WEST AVE
BRISTOW, OK 74010
Phone (918) 340-0000

Airport Operational Statistics

Aircraft based on the field: 9
Single engine airplanes: 8
Helicopters: 1
    
Aircraft operations: avg 38/week *
75% transient general aviation
25% local general aviation
* for 12-month period ending 16 June 2020

Additional Remarks

FOR CD CTC KANSAS CITY ARTCC AT 913-254-8508.

Instrument Procedures

NOTE: All procedures below are presented as PDF files. If you need a reader for these files, you should download the free Adobe Reader.

NOT FOR NAVIGATION. Please procure official charts for flight.
FAA instrument procedures published for use from 13 August 2020 at 0901Z to 10 September 2020 at 0900Z.

 
IAPs - Instrument Approach Procedures
RNAV (GPS) RWY 18   download (207KB)
RNAV (GPS) RWY 36   download (196KB)
NOTE: Special Take-Off Minimums/Departure Procedures apply   download (131KB)

Other nearby airports with instrument procedures:

KCUH - Cushing Municipal Airport (19 nm NW)
KCQB - Chandler Regional Airport (20 nm W)
O47 - Prague Municipal Airport (24 nm SW)
KOKM - Okmulgee Regional Airport (25 nm E)
KRVS - Richard Lloyd Jones Jr Airport (25 nm NE)
 
Loc | Ops | Rwys | IFR | FBO | Links
Com | Nav | Svcs | Stats | Notes
Area around 3F7 (Jones Memorial Airport)
 
Road maps at: MapQuest Bing Google
 
Aerial photo
WARNING: Photo may not be current or correct
Aerial photo of 3F7 (Jones Memorial Airport)
Photo taken 23-Jul-2007

Do you have a better or more recent aerial photo of Jones Memorial Airport that you would like to share? If so, please send us your photo.

 
Sectional chart

 
Airport distance calculator
Flying to Jones Memorial Airport? Find the distance to fly.

From to 3F7

Sunrise and sunset
Times for 14-Aug-2020
 Local
(UTC-5)
 Zulu
(UTC)
Morning civil twilight06:1811:18
Sunrise06:4511:45
Sunset20:1501:15
Evening civil twilight20:4201:42

Current date and time
Zulu (UTC)  14-Aug-2020 09:34:29
Local (UTC-5)  14-Aug-2020 04:34:29
 
METAR
KCUH 
19nm NW 
140915Z AUTO 00000KT 10SM CLR 25/23 A2985 RMK AO2 T02450225
KCQB 
20nm W 
140915Z AUTO 09005KT 10SM CLR 23/22 A2986 RMK AO2 T02330221
KOKM 
24nm E 
140915Z AUTO 05005KT 10SM CLR 24/24 A2987 RMK AO2 T02370237
KOWP 
26nm NE 
140915Z AUTO 06004KT 10SM CLR 26/24 A2988 RMK AO2 T02610237 PWINO
KRVS 
26nm NE 
140853Z AUTO 01003KT 10SM SCT110 26/24 A2987 RMK AO2 SLP114 T02610239 58016
KSRE 
34nm S 
140915Z AUTO 13005KT 10SM CLR 25/23 A2986 RMK AO2
KTUL 
35nm NE 
140853Z 00000KT 10SM SCT110 26/24 A2986 RMK AO2 SLP103 T02560239 58014
KSNL 
38nm SW 
140915Z AUTO 15011KT 10SM CLR 25/25 A2985 RMK AO2 T02500250
TAF
KRVS 
26nm NE 
140521Z 1406/1506 00000KT P6SM BKN110 FM141600 11006KT P6SM SCT040 FM150100 13003KT P6SM FEW150
NOTAMs
Click for the latest NOTAMs
NOTAMs are issued by the DoD/FAA and will open in a separate window not controlled by AirNav.

 

 
 

FBO, Fuel Providers, and Aircraft Ground Support

  
 Business Name 
 
 Contact 
 
 Services / Description 
 
Fuel Prices
 
Comments
  
City of Bristow (FBO) 918-340-0000
no information available

If you are affiliated with City of Bristow (FBO) and would like to show here your services, contact info, web link, logo, and more, click here
100LL
SS $3.89 
 Updated 23-Jun-2020
 
   write
SS=Self service
Update Fuel Prices
 

Would you like to see your business listed on this page?

 If your business provides an interesting product or service to pilots, flight crews, aircraft, or users of the Jones Memorial Airport, you should consider listing it here.  To start the listing process, click on the button below
 
Add a business
 

Other Pages about Jones Memorial Airport

Update a link
 
Copyright © AirNav, LLC. All rights reserved. Privacy Policy  Contact